Time,TemperatureF,DewpointF,PressureIn,WindDirection,WindDirectionDegrees,WindSpeedMPH,WindSpeedGustMPH,Humidity,HourlyPrecipIn,Conditions,Clouds,dailyrainin,SoftwareType,DateUTC
2013-01-26 00:06:00,34.6,33.0,31.91,East,99,8.0,13.0,92,0.00,,,0.03,weatherlink.com 1.10,2013-01-26 07:06:00,
2013-01-26 00:21:00,34.6,33.0,31.90,ENE,76,7.0,10.0,92,0.00,,,0.03,weatherlink.com 1.10,2013-01-26 07:21:00,
2013-01-26 00:36:00,35.0,33.0,31.90,East,88,6.0,10.0,91,0.00,,,0.03,weatherlink.com 1.10,2013-01-26 07:36:00,
2013-01-26 00:51:00,35.6,33.0,31.89,East,98,7.0,11.0,89,0.00,,,0.03,weatherlink.com 1.10,2013-01-26 07:51:00,
2013-01-26 01:06:00,35.8,33.0,31.89,ESE,112,4.0,13.0,88,0.00,,,0.03,weatherlink.com 1.10,2013-01-26 08:06:00,
2013-01-26 01:21:00,36.4,33.0,31.89,East,91,8.0,13.0,86,0.00,,,0.03,weatherlink.com 1.10,2013-01-26 08:21:00,
2013-01-26 01:36:00,36.8,33.0,31.88,SE,126,9.0,15.0,85,0.00,,,0.03,weatherlink.com 1.10,2013-01-26 08:36:00,
2013-01-26 01:51:00,36.5,32.0,31.89,SE,141,1.0,10.0,85,0.00,,,0.03,weatherlink.com 1.10,2013-01-26 08:51:00,
2013-01-26 02:06:00,36.2,33.0,31.88,SE,132,2.0,9.0,87,0.00,,,0.03,weatherlink.com 1.10,2013-01-26 09:06:00,
2013-01-26 02:21:00,36.3,33.0,31.88,East,81,7.0,10.0,86,0.00,,,0.03,weatherlink.com 1.10,2013-01-26 09:21:00,
2013-01-26 02:36:00,36.7,33.0,31.88,East,99,5.0,13.0,85,0.00,,,0.03,weatherlink.com 1.10,2013-01-26 09:36:00,
2013-01-26 02:51:00,36.7,32.0,31.88,ESE,120,3.0,8.0,84,0.00,,,0.03,weatherlink.com 1.10,2013-01-26 09:51:00,
2013-01-26 03:06:00,36.4,32.0,31.87,ESE,102,3.0,11.0,85,0.00,,,0.03,weatherlink.com 1.10,2013-01-26 10:06:00,
2013-01-26 03:21:00,36.3,32.0,31.87,ESE,107,8.0,9.0,85,0.00,,,0.03,weatherlink.com 1.10,2013-01-26 10:21:00,
2013-01-26 03:36:00,36.5,32.0,31.86,East,89,3.0,6.0,85,0.00,,,0.03,weatherlink.com 1.10,2013-01-26 10:36:00,
2013-01-26 03:51:00,36.8,32.0,31.86,SE,140,3.0,7.0,83,0.00,,,0.03,weatherlink.com 1.10,2013-01-26 10:51:00,
2013-01-26 04:06:00,37.0,32.0,31.86,ESE,118,5.0,10.0,82,0.00,,,0.03,weatherlink.com 1.10,2013-01-26 11:06:00,
2013-01-26 04:21:00,37.0,32.0,31.85,ENE,71,2.0,12.0,82,0.00,,,0.00,weatherlink.com 1.10,2013-01-26 11:21:00,
2013-01-26 04:36:00,36.7,32.0,31.85,East,95,6.0,9.0,83,0.00,,,0.00,weatherlink.com 1.10,2013-01-26 11:36:00,
2013-01-26 04:51:00,36.4,32.0,31.84,ESE,110,7.0,10.0,83,0.00,,,0.00,weatherlink.com 1.10,2013-01-26 11:51:00,
2013-01-26 05:06:00,36.4,32.0,31.84,East,93,9.0,13.0,83,0.00,,,0.00,weatherlink.com 1.10,2013-01-26 12:06:00,
2013-01-26 05:21:00,36.3,32.0,31.84,ESE,105,7.0,11.0,83,0.00,,,0.00,weatherlink.com 1.10,2013-01-26 12:21:00,
2013-01-26 05:36:00,36.2,31.0,31.83,East,99,7.0,11.0,82,0.00,,,0.00,weatherlink.com 1.10,2013-01-26 12:36:00,
2013-01-26 05:51:00,36.1,31.0,31.83,East,97,9.0,9.0,83,0.00,,,0.00,weatherlink.com 1.10,2013-01-26 12:51:00,
2013-01-26 06:06:00,35.9,31.0,31.82,East,94,8.0,10.0,83,0.00,,,0.00,weatherlink.com 1.10,2013-01-26 13:06:00,
2013-01-26 06:22:00,36.1,31.0,31.81,ESE,114,8.0,14.0,82,0.00,,,0.00,weatherlink.com 1.10,2013-01-26 13:22:00,
2013-01-26 06:37:00,36.1,31.0,31.81,SE,128,6.0,14.0,82,0.00,,,0.00,weatherlink.com 1.10,2013-01-26 13:37:00,
2013-01-26 06:52:00,36.2,31.0,31.81,SE,141,10.0,12.0,81,0.00,,,0.00,weatherlink.com 1.10,2013-01-26 13:52:00,
2013-01-26 07:07:00,36.6,31.0,31.80,East,98,9.0,10.0,80,0.00,,,0.00,weatherlink.com 1.10,2013-01-26 14:07:00,
2013-01-26 07:22:00,36.6,31.0,31.81,SE,137,8.0,9.0,80,0.00,,,0.00,weatherlink.com 1.10,2013-01-26 14:22:00,
2013-01-26 07:37:00,36.7,31.0,31.80,SE,131,3.0,11.0,80,0.00,,,0.00,weatherlink.com 1.10,2013-01-26 14:37:00,
2013-01-26 07:52:00,37.0,31.0,31.80,East,96,8.0,11.0,79,0.00,,,0.00,weatherlink.com 1.10,2013-01-26 14:52:00,
2013-01-26 08:07:00,36.7,31.0,31.80,ESE,111,10.0,11.0,80,0.00,,,0.00,weatherlink.com 1.10,2013-01-26 15:07:00,
2013-01-26 08:22:00,36.8,31.0,31.80,ESE,105,9.0,12.0,79,0.00,,,0.00,weatherlink.com 1.10,2013-01-26 15:22:00,
2013-01-26 08:37:00,37.2,31.0,31.80,SSE,160,8.0,11.0,78,0.00,,,0.00,weatherlink.com 1.10,2013-01-26 15:37:00,
2013-01-26 08:52:00,37.2,31.0,31.80,East,84,6.0,14.0,78,0.00,,,0.00,weatherlink.com 1.10,2013-01-26 15:52:00,
2013-01-26 09:07:00,37.3,31.0,31.79,East,94,6.0,7.0,78,0.00,,,0.00,weatherlink.com 1.10,2013-01-26 16:07:00,
2013-01-26 09:22:00,37.9,31.0,31.79,ENE,78,8.0,10.0,76,0.00,,,0.00,weatherlink.com 1.10,2013-01-26 16:22:00,
2013-01-26 09:37:00,37.7,31.0,31.78,East,84,6.0,10.0,76,0.00,,,0.00,weatherlink.com 1.10,2013-01-26 16:37:00,
2013-01-26 09:52:00,37.9,31.0,31.78,NE,47,5.0,13.0,75,0.00,,,0.00,weatherlink.com 1.10,2013-01-26 16:52:00,
2013-01-26 10:07:00,38.1,31.0,31.78,ESE,103,5.0,8.0,76,0.00,,,0.00,weatherlink.com 1.10,2013-01-26 17:07:00,
2013-01-26 10:22:00,38.1,31.0,31.78,SW,223,2.0,8.0,75,0.00,,,0.00,weatherlink.com 1.10,2013-01-26 17:22:00,
2013-01-26 10:37:00,35.7,31.0,31.78,WNW,287,12.0,15.0,83,0.00,,,0.00,weatherlink.com 1.10,2013-01-26 17:37:00,
2013-01-26 10:52:00,34.7,31.0,31.79,NW,307,17.0,24.0,86,0.00,,,0.00,weatherlink.com 1.10,2013-01-26 17:52:00,
2013-01-26 11:07:00,33.4,31.0,31.79,WNW,296,22.0,37.0,91,0.00,,,0.00,weatherlink.com 1.10,2013-01-26 18:07:00,
2013-01-26 11:22:00,33.3,31.0,31.79,NW,316,29.0,32.0,91,0.00,,,0.00,weatherlink.com 1.10,2013-01-26 18:22:00,
2013-01-26 11:37:00,33.3,30.0,31.79,NNW,331,27.0,35.0,89,0.00,,,0.00,weatherlink.com 1.10,2013-01-26 18:37:00,
2013-01-26 11:52:00,-999.0,-99.9,31.79,North,-999,-999.0,-999.0,-999,0.00,,,0.00,weatherlink.com 1.10,2013-01-26 18:52:00,
2013-01-26 12:07:00,-999.0,-99.9,31.78,North,-999,-999.0,-999.0,-999,0.00,,,0.00,weatherlink.com 1.10,2013-01-26 19:07:00,
2013-01-26 12:22:00,-999.0,-99.9,31.79,North,-999,-999.0,-999.0,-999,0.00,,,0.00,weatherlink.com 1.10,2013-01-26 19:22:00,
2013-01-26 12:37:00,32.2,-99.9,31.79,NW,306,26.0,29.0,-999,0.00,,,0.00,weatherlink.com 1.10,2013-01-26 19:37:00,
2013-01-26 12:52:00,31.8,30.0,31.78,NNW,335,18.0,32.0,93,0.00,,,0.00,weatherlink.com 1.10,2013-01-26 19:52:00,
2013-01-26 13:07:00,31.4,30.0,31.79,NNW,342,17.0,30.0,93,0.00,,,0.00,weatherlink.com 1.10,2013-01-26 20:07:00,
2013-01-26 13:22:00,31.5,30.0,31.79,WNW,285,22.0,31.0,92,0.00,,,0.00,weatherlink.com 1.10,2013-01-26 20:22:00,
2013-01-26 13:37:00,31.6,29.0,31.79,NNW,346,18.0,29.0,90,0.00,,,0.00,weatherlink.com 1.10,2013-01-26 20:37:00,
2013-01-26 13:53:00,31.5,28.0,31.80,NW,312,20.0,29.0,88,0.00,,,0.00,weatherlink.com 1.10,2013-01-26 20:53:00,
2013-01-26 14:08:00,31.1,28.0,31.79,NNW,346,19.0,28.0,88,0.00,,,0.00,weatherlink.com 1.10,2013-01-26 21:08:00,
2013-01-26 14:23:00,31.5,28.0,31.80,WNW,295,13.0,21.0,86,0.00,,,0.00,weatherlink.com 1.10,2013-01-26 21:23:00,
2013-01-26 14:38:00,31.6,27.0,31.80,NNW,346,21.0,28.0,84,0.00,,,0.00,weatherlink.com 1.10,2013-01-26 21:38:00,
2013-01-26 14:53:00,31.9,26.0,31.80,NW,321,17.0,29.0,79,0.00,,,0.00,weatherlink.com 1.10,2013-01-26 21:53:00,
2013-01-26 15:08:00,32.3,25.0,31.80,NNW,327,19.0,25.0,75,0.00,,,0.00,weatherlink.com 1.10,2013-01-26 22:08:00,
2013-01-26 15:23:00,32.5,26.0,31.79,NW,325,13.0,29.0,77,0.00,,,0.00,weatherlink.com 1.10,2013-01-26 22:23:00,
2013-01-26 15:38:00,33.0,26.0,31.80,NNW,344,15.0,23.0,74,0.00,,,0.00,weatherlink.com 1.10,2013-01-26 22:38:00,
2013-01-26 15:53:00,33.5,26.0,31.79,North,351,16.0,22.0,73,0.00,,,0.00,weatherlink.com 1.10,2013-01-26 22:53:00,
2013-01-26 16:08:00,33.5,26.0,31.80,NNW,327,14.0,18.0,73,0.00,,,0.00,weatherlink.com 1.10,2013-01-26 23:08:00,
2013-01-26 16:23:00,-999.0,-99.9,31.79,North,-999,-999.0,-999.0,-999,0.00,,,0.00,weatherlink.com 1.10,2013-01-26 23:23:00,
2013-01-26 16:38:00,-999.0,-99.9,31.79,North,-999,-999.0,-999.0,-999,0.00,,,0.00,weatherlink.com 1.10,2013-01-26 23:38:00,
2013-01-26 16:53:00,-999.0,-99.9,31.78,North,-999,-999.0,-999.0,-999,0.00,,,0.00,weatherlink.com 1.10,2013-01-26 23:53:00,
2013-01-26 17:08:00,31.7,25.0,31.78,NNW,327,10.0,15.0,77,0.00,,,0.00,weatherlink.com 1.10,2013-01-27 00:08:00,
2013-01-26 17:23:00,31.8,25.0,31.80,North,360,3.0,13.0,77,0.00,,,0.00,weatherlink.com 1.10,2013-01-27 00:23:00,
2013-01-26 17:38:00,31.6,26.0,31.81,WNW,302,3.0,5.0,79,0.00,,,0.00,weatherlink.com 1.10,2013-01-27 00:38:00,
2013-01-26 17:53:00,31.3,26.0,31.82,NW,322,10.0,11.0,80,0.00,,,0.00,weatherlink.com 1.10,2013-01-27 00:53:00,
2013-01-26 18:08:00,31.1,26.0,31.82,NNW,340,1.0,10.0,82,0.00,,,0.00,weatherlink.com 1.10,2013-01-27 01:08:00,
2013-01-26 18:23:00,31.0,26.0,31.82,SE,141,5.0,6.0,83,0.00,,,0.00,weatherlink.com 1.10,2013-01-27 01:23:00,
2013-01-26 18:38:00,29.8,27.0,31.82,ENE,64,3.0,7.0,88,0.00,,,0.00,weatherlink.com 1.10,2013-01-27 01:38:00,
2013-01-26 18:53:00,29.8,27.0,31.82,ENE,65,0.0,4.0,88,0.00,,,0.00,weatherlink.com 1.10,2013-01-27 01:53:00,
2013-01-26 19:08:00,30.0,27.0,31.83,WNW,291,3.0,4.0,88,0.00,,,0.00,weatherlink.com 1.10,2013-01-27 02:08:00,
2013-01-26 19:23:00,30.1,27.0,31.83,WNW,292,4.0,4.0,88,0.00,,,0.00,weatherlink.com 1.10,2013-01-27 02:23:00,
2013-01-26 19:38:00,29.9,27.0,31.84,NW,307,6.0,6.0,89,0.00,,,0.00,weatherlink.com 1.10,2013-01-27 02:38:00,
2013-01-26 19:53:00,29.6,27.0,31.84,WNW,296,7.0,9.0,90,0.00,,,0.00,weatherlink.com 1.10,2013-01-27 02:53:00,
2013-01-26 20:08:00,29.5,27.0,31.83,NNW,333,7.0,11.0,90,0.00,,,0.00,weatherlink.com 1.10,2013-01-27 03:08:00,
2013-01-26 20:23:00,29.5,26.0,31.84,WNW,301,10.0,16.0,88,0.00,,,0.00,weatherlink.com 1.10,2013-01-27 03:23:00,
2013-01-26 20:38:00,29.0,26.0,31.84,WNW,299,14.0,17.0,88,0.00,,,0.00,weatherlink.com 1.10,2013-01-27 03:38:00,
2013-01-26 20:53:00,29.0,26.0,31.84,WNW,298,12.0,14.0,88,0.00,,,0.00,weatherlink.com 1.10,2013-01-27 03:53:00,
2013-01-26 21:08:00,29.4,25.0,31.84,NW,323,8.0,16.0,84,0.00,,,0.00,weatherlink.com 1.10,2013-01-27 04:08:00,
2013-01-26 21:23:00,29.5,25.0,31.83,WNW,296,10.0,18.0,84,0.00,,,0.00,weatherlink.com 1.10,2013-01-27 04:23:00,
2013-01-26 21:38:00,29.4,25.0,31.84,NW,322,13.0,18.0,83,0.00,,,0.00,weatherlink.com 1.10,2013-01-27 04:38:00,
2013-01-26 21:53:00,29.4,25.0,31.84,NW,306,12.0,23.0,83,0.00,,,0.00,weatherlink.com 1.10,2013-01-27 04:53:00,
2013-01-26 22:08:00,29.4,25.0,31.85,NW,311,16.0,21.0,82,0.00,,,0.00,weatherlink.com 1.10,2013-01-27 05:08:00,
2013-01-26 22:23:00,29.2,25.0,31.85,WNW,296,17.0,18.0,83,0.00,,,0.00,weatherlink.com 1.10,2013-01-27 05:23:00,
2013-01-26 22:38:00,28.8,25.0,31.86,WNW,296,14.0,22.0,84,0.00,,,0.00,weatherlink.com 1.10,2013-01-27 05:38:00,
2013-01-26 22:53:00,28.4,25.0,31.86,NW,312,14.0,20.0,85,0.00,,,0.00,weatherlink.com 1.10,2013-01-27 05:53:00,
2013-01-26 23:08:00,28.4,24.0,31.86,WNW,296,15.0,19.0,84,0.00,,,0.00,weatherlink.com 1.10,2013-01-27 06:08:00,
2013-01-26 23:23:00,28.5,23.0,31.86,NW,312,20.0,24.0,80,0.00,,,0.00,weatherlink.com 1.10,2013-01-27 06:23:00,
2013-01-26 23:38:00,28.5,22.0,31.87,WNW,301,18.0,25.0,77,0.00,,,0.00,weatherlink.com 1.10,2013-01-27 06:38:00,
2013-01-26 23:53:00,28.3,22.0,31.87,NW,305,14.0,24.0,78,0.00,,,0.00,weatherlink.com 1.10,2013-01-27 06:53:00,